Tracking 30995 objects as of 5-Jul-2025
HD Live streaming from Space Station
objects crossing your sky now

SL-8 R/B

Track SL-8 R/B now!
10-day predictions


NORAD ID: 28910
Int'l Code: 2005-048C
Perigee: 1,437.2 km
Apogee: 1,464.8 km
Inclination: 82.5 °
Period: 114.7 minutes
Semi major axis: 7821 km
RCS: 8.4237 m2 (large)
Launch date: December 21, 2005
Source: Commonwealth of Independent States (former USSR) (CIS)
Launch site: PLESETSK MISSILE AND SPACE COMPLEX (PKMTR)

Note: This is a ROCKET BODY
Your satellite tracking list
Your tracking list is empty




NASA's NSSDC Master Catalog

Two Line Element Set (TLE):
1 28910U 05048C   25186.50744192 -.00000046  00000-0 -34705-3 0  9995
2 28910  82.4669 174.2711 0017657 149.2986 327.8505 12.54956998894914
Source of the keplerian elements: AFSPC